Tracking 18840 objects as of 19-November-2017
HD Live streaming from Space Station
objects crossing your sky now

FENGYUN 1C DEB

Track FENGYUN 1C DEB now!
10-day predictions


NORAD ID: 32354
Int'l Code: 1999-025CYX
Perigee: 716.4 km
Apogee: 1,028.1 km
Inclination: 102.9 °
Period: 102.2 minutes
Semi major axis: 7243 km
RCS: 0.0091 m2 (small)
Launch date: May 10, 1999
Source: People's Republic of China (PRC)
Launch site: Taiyaun Space Center, China (TSC)

Note: This is SATELLITE DEBRIS
aabbcc
Your satellite tracking list
Your tracking list is empty




NASA's NSSDC Master Catalog

Two Line Element Set (TLE):
1 32354U 99025CYX 17322.37541214 +.00002470 +00000-0 +12033-2 0  9998
2 32354 102.9285 155.3366 0215154 107.3608 255.1200 14.08320351533629
Source of the keplerian elements: AFSPC